{"data":{"norad_id":56329,"epoch":"2026-05-24T22:51:41.420736Z","epoch_age_seconds":79971,"freshness":"FRESH","line1":"1 56329U 23058N   26144.95256274 -.00001904  00000+0 -12786-3 0  9992","line2":"2 56329  97.4488 146.0485 0001933  92.5195 267.6253 15.05665883169679","mean_motion":15.05665883,"eccentricity":0.0001933,"inclination_deg":97.4488,"raan_deg":146.0485,"arg_perigee_deg":92.5195,"mean_anomaly_deg":267.6253,"bstar":-0.00012786,"rev_number":16967,"period_min":95.638748028934,"perigee_km":548.12332996878,"apogee_km":550.80153991033,"semimajor_km":6927.5994349396,"source":"CELESTRAK","updated_at":"2026-05-25T13:38:18.002210Z"}}